Time,TemperatureF,DewpointF,PressureIn,WindDirection,WindDirectionDegrees,WindSpeedMPH,WindSpeedGustMPH,Humidity,HourlyPrecipIn,Conditions,Clouds,dailyrainin,SoftwareType,DateUTC
2013-05-10 00:05:00,55.7,52.0,29.92,South,187,0.0,-999.0,86,-99.99,,,0.00,weatherlink.com 1.10,2013-05-10 04:05:00,
2013-05-10 00:20:00,55.2,51.0,29.92,South,185,0.0,-999.0,87,-99.99,,,0.00,weatherlink.com 1.10,2013-05-10 04:20:00,
2013-05-10 00:35:00,55.1,51.0,29.92,South,186,0.0,-999.0,86,-99.99,,,0.00,weatherlink.com 1.10,2013-05-10 04:35:00,
2013-05-10 00:50:00,55.2,51.0,29.92,South,186,0.0,-999.0,87,-99.99,,,0.00,weatherlink.com 1.10,2013-05-10 04:50:00,
2013-05-10 01:20:00,54.9,51.0,29.92,South,184,2.0,-999.0,87,-99.99,,,0.00,weatherlink.com 1.10,2013-05-10 05:20:00,
2013-05-10 01:35:00,54.9,51.0,29.92,South,183,3.0,-999.0,87,-99.99,,,0.00,weatherlink.com 1.10,2013-05-10 05:35:00,
2013-05-10 01:50:00,55.1,51.0,29.91,South,188,1.0,-999.0,87,-99.99,,,0.00,weatherlink.com 1.10,2013-05-10 05:50:00,
2013-05-10 02:05:00,55.1,51.0,29.91,South,188,2.0,-999.0,87,-99.99,,,0.00,weatherlink.com 1.10,2013-05-10 06:05:00,
2013-05-10 02:20:00,54.9,51.0,29.91,South,190,0.0,-999.0,87,-99.99,,,0.00,weatherlink.com 1.10,2013-05-10 06:20:00,
2013-05-10 02:35:00,54.7,51.0,29.91,South,183,3.0,-999.0,87,-99.99,,,0.00,weatherlink.com 1.10,2013-05-10 06:35:00,
2013-05-10 02:50:00,54.7,51.0,29.91,South,185,0.0,-999.0,87,-99.99,,,0.00,weatherlink.com 1.10,2013-05-10 06:50:00,
2013-05-10 03:05:00,54.8,51.0,29.90,South,182,3.0,-999.0,86,-99.99,,,0.00,weatherlink.com 1.10,2013-05-10 07:05:00,
2013-05-10 03:20:00,54.8,51.0,29.90,South,182,3.0,-999.0,86,-99.99,,,0.00,weatherlink.com 1.10,2013-05-10 07:20:00,
2013-05-10 03:35:00,55.1,51.0,29.90,South,188,3.0,-999.0,86,-99.99,,,0.00,weatherlink.com 1.10,2013-05-10 07:35:00,
2013-05-10 03:50:00,54.5,50.0,29.90,South,190,4.0,-999.0,85,-99.99,,,0.00,weatherlink.com 1.10,2013-05-10 07:50:00,
2013-05-10 04:06:00,54.2,50.0,29.90,South,190,2.0,-999.0,86,-99.99,,,0.00,weatherlink.com 1.10,2013-05-10 08:06:00,
2013-05-10 04:21:00,54.6,50.0,29.89,South,186,2.0,-999.0,85,-99.99,,,0.00,weatherlink.com 1.10,2013-05-10 08:21:00,
2013-05-10 04:36:00,54.8,50.0,29.89,South,180,4.0,-999.0,84,-99.99,,,0.00,weatherlink.com 1.10,2013-05-10 08:36:00,
2013-05-10 04:51:00,54.9,50.0,29.89,South,186,3.0,-999.0,83,-99.99,,,0.00,weatherlink.com 1.10,2013-05-10 08:51:00,
2013-05-10 05:06:00,54.7,50.0,29.89,South,186,5.0,-999.0,83,-99.99,,,0.00,weatherlink.com 1.10,2013-05-10 09:06:00,
2013-05-10 05:21:00,55.0,49.0,29.89,South,185,4.0,-999.0,81,-99.99,,,0.00,weatherlink.com 1.10,2013-05-10 09:21:00,
2013-05-10 05:36:00,55.5,49.0,29.88,South,186,0.0,-999.0,80,-99.99,,,0.00,weatherlink.com 1.10,2013-05-10 09:36:00,
2013-05-10 05:51:00,56.1,50.0,29.89,ENE,70,0.0,-999.0,79,-99.99,,,0.00,weatherlink.com 1.10,2013-05-10 09:51:00,
2013-05-10 06:06:00,56.3,50.0,29.89,ENE,69,0.0,-999.0,78,-99.99,,,0.00,weatherlink.com 1.10,2013-05-10 10:06:00,
2013-05-10 06:21:00,56.3,50.0,29.89,ENE,70,0.0,-999.0,79,-99.99,,,0.00,weatherlink.com 1.10,2013-05-10 10:21:00,
2013-05-10 06:36:00,55.3,49.0,29.89,ENE,70,0.0,-999.0,80,-99.99,,,0.00,weatherlink.com 1.10,2013-05-10 10:36:00,
2013-05-10 06:51:00,54.1,49.0,29.89,ENE,70,0.0,-999.0,82,-99.99,,,0.00,weatherlink.com 1.10,2013-05-10 10:51:00,
2013-05-10 07:06:00,53.7,49.0,29.89,ENE,70,0.0,-999.0,85,-99.99,,,0.00,weatherlink.com 1.10,2013-05-10 11:06:00,
2013-05-10 07:21:00,56.0,51.0,29.89,SE,126,0.0,-999.0,84,-99.99,,,0.00,weatherlink.com 1.10,2013-05-10 11:21:00,
2013-05-10 07:36:00,58.3,52.0,29.89,SSE,158,2.0,-999.0,80,-99.99,,,0.01,weatherlink.com 1.10,2013-05-10 11:36:00,
2013-05-10 07:51:00,59.5,52.0,29.89,SSE,164,0.0,-999.0,76,-99.99,,,0.01,weatherlink.com 1.10,2013-05-10 11:51:00,
2013-05-10 08:06:00,59.5,52.0,29.90,SSE,163,4.0,-999.0,75,-99.99,,,0.01,weatherlink.com 1.10,2013-05-10 12:06:00,
2013-05-10 08:21:00,59.5,52.0,29.89,SE,145,2.0,-999.0,76,-99.99,,,0.01,weatherlink.com 1.10,2013-05-10 12:21:00,
2013-05-10 08:36:00,60.8,53.0,29.88,SE,138,0.0,-999.0,75,-99.99,,,0.01,weatherlink.com 1.10,2013-05-10 12:36:00,
2013-05-10 08:51:00,62.1,54.0,29.88,SE,140,0.0,-999.0,74,-99.99,,,0.01,weatherlink.com 1.10,2013-05-10 12:51:00,
2013-05-10 09:06:00,62.3,54.0,29.88,SE,138,0.0,-999.0,74,-99.99,,,0.01,weatherlink.com 1.10,2013-05-10 13:06:00,
2013-05-10 09:21:00,62.0,54.0,29.87,SE,129,0.0,-999.0,76,-99.99,,,0.01,weatherlink.com 1.10,2013-05-10 13:21:00,
2013-05-10 09:36:00,62.2,56.0,29.87,East,92,0.0,-999.0,79,-99.99,,,0.01,weatherlink.com 1.10,2013-05-10 13:36:00,
2013-05-10 09:51:00,62.0,55.0,29.87,SE,126,0.0,-999.0,78,-99.99,,,0.01,weatherlink.com 1.10,2013-05-10 13:51:00,
2013-05-10 10:06:00,62.2,56.0,29.87,SE,128,0.0,-999.0,79,-99.99,,,0.01,weatherlink.com 1.10,2013-05-10 14:06:00,
2013-05-10 10:21:00,62.2,57.0,29.89,WSW,241,5.0,-999.0,82,-99.99,,,0.01,weatherlink.com 1.10,2013-05-10 14:21:00,
2013-05-10 10:36:00,61.2,55.0,29.89,SW,223,3.0,-999.0,81,-99.99,,,0.01,weatherlink.com 1.10,2013-05-10 14:36:00,
2013-05-10 10:51:00,60.1,56.0,29.89,SW,219,0.0,-999.0,85,-99.99,,,0.01,weatherlink.com 1.10,2013-05-10 14:51:00,
2013-05-10 11:06:00,60.0,56.0,29.88,South,186,0.0,-999.0,85,-99.99,,,0.01,weatherlink.com 1.10,2013-05-10 15:06:00,
2013-05-10 11:21:00,59.8,55.0,29.88,South,184,0.0,-999.0,85,-99.99,,,0.01,weatherlink.com 1.10,2013-05-10 15:21:00,
2013-05-10 11:36:00,59.8,55.0,29.88,South,184,0.0,-999.0,85,-99.99,,,0.01,weatherlink.com 1.10,2013-05-10 15:36:00,
2013-05-10 11:51:00,59.9,55.0,29.87,South,171,0.0,-999.0,85,-99.99,,,0.01,weatherlink.com 1.10,2013-05-10 15:51:00,
2013-05-10 12:06:00,60.2,56.0,29.85,SE,133,6.0,-999.0,85,-99.99,,,0.01,weatherlink.com 1.10,2013-05-10 16:06:00,
2013-05-10 12:21:00,61.3,57.0,29.85,SE,128,4.0,-999.0,85,-99.99,,,0.01,weatherlink.com 1.10,2013-05-10 16:21:00,
2013-05-10 12:36:00,62.7,58.0,29.84,ESE,113,6.0,-999.0,84,-99.99,,,0.01,weatherlink.com 1.10,2013-05-10 16:36:00,
2013-05-10 12:51:00,64.5,59.0,29.83,SE,140,6.0,-999.0,82,-99.99,,,0.01,weatherlink.com 1.10,2013-05-10 16:51:00,
2013-05-10 13:06:00,65.2,59.0,29.82,SE,125,6.0,-999.0,80,-99.99,,,0.01,weatherlink.com 1.10,2013-05-10 17:06:00,
2013-05-10 13:21:00,67.1,61.0,29.82,SE,131,5.0,-999.0,80,-99.99,,,0.01,weatherlink.com 1.10,2013-05-10 17:21:00,
2013-05-10 13:37:00,68.1,61.0,29.81,SE,142,5.0,-999.0,77,-99.99,,,0.01,weatherlink.com 1.10,2013-05-10 17:37:00,
2013-05-10 13:52:00,68.4,61.0,29.81,SE,139,4.0,-999.0,78,-99.99,,,0.01,weatherlink.com 1.10,2013-05-10 17:52:00,
2013-05-10 14:07:00,70.0,63.0,29.80,SE,140,6.0,-999.0,77,-99.99,,,0.01,weatherlink.com 1.10,2013-05-10 18:07:00,
2013-05-10 14:22:00,69.8,62.0,29.80,SE,140,4.0,-999.0,77,-99.99,,,0.01,weatherlink.com 1.10,2013-05-10 18:22:00,
2013-05-10 14:37:00,69.3,63.0,29.79,SE,142,0.0,-999.0,79,-99.99,,,0.01,weatherlink.com 1.10,2013-05-10 18:37:00,
2013-05-10 14:52:00,70.4,63.0,29.78,SSW,199,6.0,-999.0,77,-99.99,,,0.01,weatherlink.com 1.10,2013-05-10 18:52:00,
2013-05-10 15:07:00,71.5,62.0,29.78,South,178,0.0,-999.0,73,-99.99,,,0.01,weatherlink.com 1.10,2013-05-10 19:07:00,
2013-05-10 15:22:00,73.1,63.0,29.77,South,188,4.0,-999.0,71,-99.99,,,0.01,weatherlink.com 1.10,2013-05-10 19:22:00,
2013-05-10 15:37:00,73.4,63.0,29.75,South,178,11.0,-999.0,69,-99.99,,,0.01,weatherlink.com 1.10,2013-05-10 19:37:00,
2013-05-10 15:52:00,73.1,63.0,29.74,South,176,1.0,-999.0,70,-99.99,,,0.01,weatherlink.com 1.10,2013-05-10 19:52:00,
2013-05-10 16:07:00,72.8,61.0,29.73,South,169,7.0,-999.0,67,-99.99,,,0.01,weatherlink.com 1.10,2013-05-10 20:07:00,
2013-05-10 16:22:00,72.0,62.0,29.73,South,171,4.0,-999.0,70,-99.99,,,0.01,weatherlink.com 1.10,2013-05-10 20:22:00,
2013-05-10 16:37:00,67.6,61.0,29.73,SW,222,0.0,-999.0,78,-99.99,,,0.01,weatherlink.com 1.10,2013-05-10 20:37:00,
2013-05-10 16:52:00,66.9,62.0,29.73,South,191,0.0,-999.0,83,-99.99,,,0.01,weatherlink.com 1.10,2013-05-10 20:52:00,
2013-05-10 17:07:00,67.3,61.0,29.73,South,182,4.0,-999.0,81,-99.99,,,0.01,weatherlink.com 1.10,2013-05-10 21:07:00,
2013-05-10 17:22:00,66.7,61.0,29.73,South,179,2.0,-999.0,83,-99.99,,,0.01,weatherlink.com 1.10,2013-05-10 21:22:00,
2013-05-10 17:37:00,65.7,61.0,29.74,South,177,9.0,-999.0,85,-99.99,,,0.01,weatherlink.com 1.10,2013-05-10 21:37:00,
2013-05-10 17:52:00,64.8,61.0,29.75,SW,225,2.0,-999.0,86,-99.99,,,0.01,weatherlink.com 1.10,2013-05-10 21:52:00,
2013-05-10 18:07:00,63.8,60.0,29.74,WSW,249,0.0,-999.0,86,-99.99,,,0.01,weatherlink.com 1.10,2013-05-10 22:07:00,
2013-05-10 18:22:00,63.2,59.0,29.74,SW,229,4.0,-999.0,86,-99.99,,,0.01,weatherlink.com 1.10,2013-05-10 22:22:00,
2013-05-10 18:37:00,62.7,59.0,29.74,SW,220,0.0,-999.0,87,-99.99,,,0.01,weatherlink.com 1.10,2013-05-10 22:37:00,
2013-05-10 18:52:00,62.7,59.0,29.74,SSE,161,0.0,-999.0,87,-99.99,,,0.01,weatherlink.com 1.10,2013-05-10 22:52:00,
2013-05-10 19:07:00,63.1,59.0,29.73,South,177,9.0,-999.0,87,-99.99,,,0.01,weatherlink.com 1.10,2013-05-10 23:07:00,
2013-05-10 19:22:00,63.4,60.0,29.72,South,171,5.0,-999.0,87,-99.99,,,0.01,weatherlink.com 1.10,2013-05-10 23:22:00,
2013-05-10 19:37:00,63.1,59.0,29.72,SSE,167,15.0,-999.0,87,-99.99,,,0.01,weatherlink.com 1.10,2013-05-10 23:37:00,
2013-05-10 19:52:00,62.7,59.0,29.72,SSW,210,12.0,-999.0,86,-99.99,,,0.01,weatherlink.com 1.10,2013-05-10 23:52:00,
2013-05-10 20:07:00,61.9,58.0,29.71,SW,214,10.0,-999.0,86,-99.99,,,0.01,weatherlink.com 1.10,2013-05-11 00:07:00,
2013-05-10 20:22:00,61.1,57.0,29.71,SSW,200,8.0,-999.0,86,-99.99,,,0.01,weatherlink.com 1.10,2013-05-11 00:22:00,
2013-05-10 20:37:00,60.6,57.0,29.70,South,173,13.0,-999.0,87,-99.99,,,0.01,weatherlink.com 1.10,2013-05-11 00:37:00,
2013-05-10 20:52:00,60.3,57.0,29.70,South,179,14.0,-999.0,87,-99.99,,,0.01,weatherlink.com 1.10,2013-05-11 00:52:00,
2013-05-10 21:07:00,60.2,56.0,29.71,SSW,213,5.0,-999.0,87,-99.99,,,0.01,weatherlink.com 1.10,2013-05-11 01:07:00,
2013-05-10 21:22:00,60.3,57.0,29.71,SSW,211,7.0,-999.0,87,-99.99,,,0.01,weatherlink.com 1.10,2013-05-11 01:22:00,
2013-05-10 21:37:00,60.2,56.0,29.72,SSW,200,9.0,-999.0,87,-99.99,,,0.01,weatherlink.com 1.10,2013-05-11 01:37:00,
2013-05-10 21:52:00,59.9,56.0,29.72,South,191,5.0,-999.0,88,-99.99,,,0.01,weatherlink.com 1.10,2013-05-11 01:52:00,
2013-05-10 22:07:00,59.7,56.0,29.71,SSW,194,5.0,-999.0,87,-99.99,,,0.01,weatherlink.com 1.10,2013-05-11 02:07:00,
2013-05-10 22:22:00,59.5,56.0,29.71,SSW,206,4.0,-999.0,88,-99.99,,,0.01,weatherlink.com 1.10,2013-05-11 02:22:00,
2013-05-10 22:37:00,59.2,56.0,29.70,SSW,192,4.0,-999.0,88,-99.99,,,0.01,weatherlink.com 1.10,2013-05-11 02:37:00,
2013-05-10 22:52:00,59.1,56.0,29.69,South,175,0.0,-999.0,88,-99.99,,,0.01,weatherlink.com 1.10,2013-05-11 02:52:00,
2013-05-10 23:07:00,59.2,56.0,29.69,South,185,0.0,-999.0,88,-99.99,,,0.01,weatherlink.com 1.10,2013-05-11 03:07:00,
2013-05-10 23:22:00,59.1,56.0,29.69,South,181,3.0,-999.0,88,-99.99,,,0.01,weatherlink.com 1.10,2013-05-11 03:22:00,
2013-05-10 23:37:00,59.1,56.0,29.68,South,190,2.0,-999.0,88,-99.99,,,0.01,weatherlink.com 1.10,2013-05-11 03:37:00,
2013-05-10 23:52:00,59.1,56.0,29.68,South,178,0.0,-999.0,88,-99.99,,,0.01,weatherlink.com 1.10,2013-05-11 03:52:00,